Regional Weather Roundup
Issued by NWS State College, PA

Home | Current Version | Previous Version | Text Only | Print | Product List | Glossary On
Versions: 1 2 3 4 5 6 7 8 9 10 11 12 13 14 15 16 17 18 19 20 21 22 23 24 25 26 27 28 29 30 31 32 33 34 35 36 37 38 39 40 41 42 43 44 45 46 47 48 49 50
000
ASUS41 KCTP 280203
RWRCTP

REGIONAL WEATHER ROUNDUP
NATIONAL WEATHER SERVICE STATE COLLEGE PA
1000 PM EDT WED AUG 27 2014

Note: "fair" indicates few or no clouds below 12,000 feet with no
significant weather and/or obstructions to visibility.

* = STATION THAT DOES NOT REPORT PRECIPITATION /E.G. RAIN...SNOW...ETC/
    THUNDER OR FOG.

PAZ002>004-007>009-013>016-020>023-029>032-280300-
WESTERN PENNSYLVANIA

CITY           SKY/WX    TMP DP  RH WIND       PRES   REMARKS
ERIE           CLEAR     69  55  60 N7        30.08R
MEADVILLE      PTCLDY    64  57  78 N6        30.09R
FRANKLIN*      PTCLDY    63  55  77 CALM      30.10S
NEW CASTLE     FAIR      66  61  84 CALM      30.10R
BEAVER COUNTY  NOT AVBL
BUTLER*        PTCLDY    68  61  77 N6        30.09R
PITTSBURGH INT MOCLDY    72  64  76 N9        30.06R
PITTSBURGH     PTCLDY    71  65  81 VRB6      30.04R
INDIANA*       CLOUDY    72  66  83 N7        30.08R
LATROBE        PTCLDY    68  68 100 CALM      30.04R FOG
WASHINGTON CO* PTCLDY    70  66  88 CALM      30.06S
$$

PAZ004>006-010>012-017>019-024>028-033>037-041-042-045-046-049>053-280300-
CENTRAL PENNSYLVANIA

CITY           SKY/WX    TMP DP  RH WIND       PRES   REMARKS
BRADFORD       CLEAR     62  56  80 CALM      30.08R
DUBOIS         MOCLDY    66  60  81 N9        30.07R
CLEARFIELD     MOCLDY    70  63  78 NW8       30.05R
JOHNSTOWN      PTCLDY    69  66  90 W9        30.07R
ALTOONA        PTCLDY    72  68  87 NW5       30.03R
STATE COLLEGE  MOCLDY    75  66  73 NW7       30.00R
WILLIAMSPORT   PTCLDY    78  65  63 N7        29.95R
SELINSGROVE    PTCLDY    72  68  87 CALM      29.95R
FT INDIANTOWN  MOCLDY    77  70  80 N2        29.93S
CAPITAL CITY   MOCLDY    78  70  76 W6        29.92R
HARRISBURG     MOCLDY    80  71  74 NW7       29.91R
YORK           PTCLDY    71  68  90 CALM      29.93S
$$

PAZ038>040-043-044-047-048-054-055-060>062-067>071-280300-
EASTERN PENNSYLVANIA

CITY           SKY/WX    TMP DP  RH WIND       PRES   REMARKS
SCRANTON       CLOUDY    76  66  71 NE9       29.97R
MOUNT POCONO   MOCLDY    71  66  84 N8        29.99S
ALLENTOWN      MOCLDY    78  69  73 CALM      29.90S
QUAKERTOWN*    MOCLDY    75  70  83 CALM      29.92R
READING        PTCLDY    79  67  66 CALM      29.90R
LANCASTER      MOCLDY    77  69  76 NW5       29.92R
COATESVILLE    CLEAR     75  72  88 SW3       29.93S
POTTSTOWN      PTCLDY    76  68  76 NW3       29.92R
BLUE BELL      PTCLDY    77  70  78 CALM      29.90R
DOYLESTOWN     MOCLDY    77  68  73 CALM      29.90R
WILLOW GROVE   NOT AVBL
NORTH PHILA    PTCLDY    82  66  58 SW6       29.90S
PHILADELPHIA   PTCLDY    80  66  62 SW10      29.90S
$$



USA.gov is the U.S. government's official web portal to all federal, state and local government web resources and services.